Regional Weather Roundup
Issued by NWS Jackson, KY

Home | Current Version | Previous Version | Graphics & Text | Print | Product List | Glossary On
Versions: 1 2 3 4 5 6 7 8 9 10 11 12 13 14 15 16 17 18 19 20 21 22 23 24 25 26 27 28 29 30 31 32 33 34 35 36 37 38 39 40 41 42 43 44 45 46 47 48 49 50
000
ASUS43 KJKL 281310
RWRJKL

EAST KENTUCKY HOURLY WEATHER ROUNDUP
NATIONAL WEATHER SERVICE JACKSON KY
900 AM EDT TUE MAR 28 2017

NOTE: "FAIR" INDICATES FEW OR NO CLOUDS BELOW 12,000 FEET WITH
NO SIGNIFICANT WEATHER AND/OR OBSTRUCTIONS TO VISIBILITY.

* THESE REPORTS ARE NOT UNDER NWS QUALITY CONTROL AND MAY NOT
  REPORT WEATHER SUCH AS PRECIPITATION AND FOG.

KYZ079-080-083-085-087-088-110-112-115-119-120-281400
...EASTERN KENTUCKY...

CITY           SKY/WX    TMP DP  RH WIND       PRES   REMARKS
JACKSON        LGT RAIN  56  54  93 W6        29.94R
LONDON         CLOUDY    56  53  90 SW6       29.96R
SOMERSET*      CLOUDY    55  55 100 W3        29.98R
MONTICELLO*    CLOUDY    57  55  93 W13       29.99R
WILLIAMSBURG*  CLOUDY    55  55 100 W3        29.97R
MIDDLESBORO*   CLOUDY    57  56  97 CALM      29.97R
HARLAN APT*    CLOUDY    55  52  88 CALM      29.96R
PIKE CO APT*   FOG       54  54 100 CALM      29.94R VSB 3/4
BIG SANDY APT* CLOUDY    55  55 100 W3        29.94R FOG
MOREHEAD APT*  CLOUDY    55  54  94 W5        29.94R
ASHLAND*       CLOUDY    55  55 100 CALM      29.90R
$$

KYZ035-036-041-042-044-050-067-078-099-281400
...CENTRAL KENTUCKY...

CITY           SKY/WX    TMP DP  RH WIND       PRES   REMARKS
MT STERLING*   CLOUDY    55  54  94 CALM      29.96R FOG
FLEMING/MASON* CLOUDY    55  54  97 W6        29.94R
DANVILLE*      CLOUDY    54  54 100 W3        29.97R
LEXINGTON      CLOUDY    57  54  89 W7        29.94R FOG
FRANKFORT      CLOUDY    57  54  89 W5        29.92R FOG
LOUISVILLE     CLOUDY    57  54  89 W7        29.95R FOG
LEBANON*       CLOUDY    55  55 100 SW5       29.96R FOG
GLASGOW*       CLOUDY    55  55 100 W5        29.98R FOG
BOWLING GREEN  CLOUDY    57  54  89 W5        29.98R
$$

KYZ091>093-OHZ055-061-077-WVZ005-015-034-035-042-281400
...SOUTHERN OHIO/WEST VIRGINIA...

CITY           SKY/WX    TMP DP  RH WIND       PRES   REMARKS
COVINGTON      CLOUDY    56  55  97 N14       29.91R FOG
COLUMBUS       CLOUDY    56  54  93 N8        29.90R
DAYTON         CLOUDY    52  51  97 N16       29.94R FOG
WILMINGTON     CLOUDY    55  55 100 W6        29.90R FOG
HUNTINGTON     CLOUDY    56  54  93 SW3       29.90R
CHARLESTON     CLOUDY    56  54  93 SW6       29.90R
PINEVILLE*     LGT RAIN  55  52  91 MISG      29.98R
BECKLEY        LGT RAIN  54  52  93 SW5       29.92S
LOGAN CO APT*  CLOUDY    55  54  94 W9        29.92R
$$

VAZ002-007-008-TNZ017-027-036-066-071-281400
...SOUTHWEST VIRGINIA/EAST TENNESSEE...

CITY           SKY/WX    TMP DP  RH WIND       PRES   REMARKS
WISE*          DRIZZLE   54  54 100 SW6       29.97R
JONESVILLE*    CLOUDY    57  55  94 CALM      29.98R
ABINGDON*      CLOUDY    57  57 100 W6        29.96R FOG
BRISTOL        CLOUDY    58  55  90 W6        29.96R
MORRISTOWN*    CLOUDY    59  57  94 W8        29.96R
SEVIERVILLE*   CLOUDY    55  55 100 W8        29.96R
KNOXVILLE      CLOUDY    58  56  93 W14       29.97R
LAFOLLETTE*    CLOUDY    57  55  94 CALM      29.99R
OAK RIDGE      CLOUDY    59  56  89 SW3       29.98R
CROSSVILLE     CLOUDY    55  54  96 W8        29.99R
NASHVILLE      PTSUNNY   57  54  89 CALM      30.01R
$$

...KEY TO REMARKS...
VSB - VISIBILITY IN MILES
WCI - WIND CHILL INDEX
HX  - HEAT INDEX

$$



USA.gov is the U.S. government's official web portal to all federal, state and local government web resources and services.